FENGYUN 1C DEB, 30489

Orbit data source: Space-Track

FENGYUN 1C DEB, 30489 is space debris in SSO originally from a launch on Mon, 10 May 1999 UTC launched from the Taiyaun Space Center, China (TSC). Fengyun 1C debris stems from the Chinese weather satellite Fengyun-1C, which was intentionally destroyed by a Chinese anti-satellite missile in 2007. This event dramatically increased the amount of space debris, with thousands of trackable fragments posing hazards to satellites and human spaceflight. The Fengyun 1C debris cloud has become a focal point in discussions about space sustainability and the need for international regulations to prevent the creation of new debris.

Loading next visibility...
Identifier
30489, 1999-025AHB
Orbit
SSO
Country
Flag of CNCN / PRC
Related business
Manufacturer
Unknown
Mission
Spacecraft
Bus & Motor
Unknown
Mass
Unknown
Launch date (UTC)
1999-05-10 (27 years ago)
Launch vehicle
Unknown
Launch site
Taiyaun Space Center, China (TSC)
Object type
Payload
Rocket body
Debris
Shape & HBR
Unknown shape, 0.1 m
Radar Cross Section
Medium (>0.1 m² and <1 m²)

Expand to show TLE details & history
Last TLE update: 18 hours ago

TLE from 18 hours ago
0 FENGYUN 1C DEB
1 30489U 99025AHB 26256.55874432  .00000252  00000-0  13486-3 0  9992
2 30489  98.4634 262.9315 0139211 192.1695 293.2288 14.16098391 12759
Epoch: 2026-09-13T13:24Z
TLE epoch observation values (Epoch: 2026-09-13T13:24:35.509Z)
Latitude
55.26123°
Longitude
-98.444°
Altitude
809.274 km
Speed
7.474 km/s
True Right ascension
06h 21m 01s
True Declination
55° 06' 04"
Sunlit
Object was in daylight at epoch
Visualization orbit readout
Latitude
Unknown
Longitude
Unknown
Altitude
Unknown
Speed
Unknown
Apparent Right ascension
Unknown
Apparent Declination
Unknown
Sunlit
N/A
Visualization observer readout
Local Sidereal Time
23:32:13
Azimuth
Unknown
Elevation
Unknown
Doppler factor
Unknown
Orbital elements
Apogee altitude
936.154 km
Perigee altitude
735.304 km
Semi-major axis
7,213.866 km
Eccentricity
0.01392
Inclination
98.4634°
RAAN
262.9315°
Arg. of periapsis
192.1695°
True anomaly
291.75291°
Mean anomaly
293.2288°
Eccentric anomaly
292.49185°
Mean motion
3.54235 °/min
Orbital period
101.63 mins
BSTAR
0.00013486
Loading maneuver chart data...
Computing Atmospheric mass density...

Documentation

Showing up to 5 results
|